User: anonymous   Login
Location: Unspecified
(0.0000°N, 0.0000°E)
Time: 19:13:43
(UTC+02:00)
Language:

Milstar 3 - Orbit

View from above orbital plane
View from above orbital plane
View from above satellite
View from above satellite

Ground track
Ground track

The orbit data is extracted from the following two-line orbital elements,

1 25724U 99023A   15092.04882616 0.00000030  00000-0  38108-3 0    04
2 25724  28.2146  57.4484 2129299  46.6513 313.3482  9.37457764    02
Epoch (UTC): 02 April 2015 01:10:18
Eccentricity: 0.2129299
inclination: 28.2146°
perigee height: 1100 km
apogee height: 5146 km
right ascension of ascending node: 57.4484°
argument of perigee: 46.6513°
revolutions per day: 9.37457764
mean anomaly at epoch: 313.3482°
orbit number at epoch: 0

The dashed part of the orbit path shows where the satellite is in the earth's shadow,  

DLR